Overview Statistics Trail Chart Weather Telemetry Raw packets
 

This is the latest recevied weather packets stored in our database for station/object SV9TNF-56. If no packets are shown the sender has not sent any weather packets the latest 10 day(s).

<< 49 50 51 52 53 54 55 >>
Time Temp. Humidity Pressure Rain* Wind** Luminosity Snow
1788328117 25.56° C 62% 1011.5 hPa 0 mm 9.83 m/s, 233° - -
1788327817 25.56° C 62% 1011.9 hPa 0 mm 8.94 m/s, 186° - -
1788327528 25.56° C 60% 1011.9 hPa 0 mm 6.71 m/s, 132° - -
1788327217 25.56° C 57% 1011.5 hPa 0 mm 8.05 m/s, 222° - -
1788326917 25.56° C 57% 1011.5 hPa 0 mm 12.07 m/s, 138° - -
1788326617 25.56° C 57% 1011.9 hPa 0 mm 7.6 m/s, 174° - -
1788326316 25.56° C 58% 1011.5 hPa 0 mm 6.26 m/s, 150° - -
1788326016 25.56° C 62% 1011.5 hPa 0 mm 9.83 m/s, 126° - -
1788325716 25.56° C 60% 1011.9 hPa 0 mm 8.05 m/s, 132° - -
1788325416 25° C 61% 1011.5 hPa 0 mm 5.81 m/s, 159° - -
1788325116 25° C 61% 1011.5 hPa 0 mm 6.26 m/s, 159° - -
1788324816 25° C 62% 1011.5 hPa 0 mm 3.13 m/s, 250° - -
1788324516 25° C 63% 1011.5 hPa 0 mm 8.94 m/s, 222° - -
1788324216 24.44° C 62% 1011.2 hPa 0 mm 3.13 m/s, 102° - -
1788323916 24.44° C 66% 1011.5 hPa 0 mm 10.28 m/s, 195° - -
1788323616 24.44° C 67% 1011.5 hPa 0 mm 14.31 m/s, 245° - -
1788323316 24.44° C 66% 1011.5 hPa 0 mm 8.05 m/s, 138° - -
1788323015 24.44° C 66% 1011.2 hPa 0 mm 12.96 m/s, 222° - -
1788322715 24.44° C 66% 1011.2 hPa 0 mm 15.2 m/s, 300° - -
1788322415 24.44° C 65% 1011.5 hPa 0 mm 12.07 m/s, 234° - -
1788322115 24.44° C 65% 1011.5 hPa 0 mm 6.26 m/s, 225° - -
1788321815 25° C 65% 1011.5 hPa 0 mm 13.41 m/s, 222° - -
1788321515 25° C 64% 1011.2 hPa 0 mm 3.13 m/s, 231° - -
1788321215 25° C 63% 1011.2 hPa 0 mm 12.07 m/s, 238° - -
1788320915 24.44° C 62% 1011.2 hPa 0 mm 4.92 m/s, 180° - -

* Rain latest hour (hover to see other rain measurements)
** Current wind speed in m/s (hover to see current wind gust speed)